API VERSION: 1.2 API SOURCE: NASA/JPL Horizons API ******************************************************************************* JPL/HORIZONS 523794 (2015 RR245) 2025-Dec-12 21:09:36 Rec #: 523794 (+COV) Soln.date: 2025-Oct-31_02:12:13 # obs: 295 (2004-2025) IAU76/J2000 helio. ecliptic osc. elements (au, days, deg., period=Julian yrs): EPOCH= 2458266.5 ! 2018-May-28.00 (TDB) Residual RMS= .10797 EC= .583546941497161 QR= 33.82850167639909 TP= 2485516.4218287012 OM= 211.6613728649621 W= 261.281014029398 IN= 7.58089378246776 A= 81.23004738640546 MA= 323.3145141764496 ADIST= 128.6315930964118 PER= 732.12167 N= .00134626 ANGMOM= .125903642 DAN= 58.76753 DDN= 49.21547 L= 112.8667042 B= -7.4927809 MOID= 32.85480118 TP= 2093-Jan-03.9218287012 Asteroid physical parameters (km, seconds, rotational period in hours): GM= n.a. RAD= n.a. ROTPER= n.a. H= 3.81 G= .150 B-V= n.a. ALBEDO= n.a. STYP= n.a. ASTEROID comments: 1: soln ref.= JPL#27, OCC=2 2: source=ORB ******************************************************************************* ******************************************************************************* Ephemeris / API_USER Fri Dec 12 21:09:36 2025 Pasadena, USA / Horizons ******************************************************************************* Target body name: 523794 (2015 RR245) {source: JPL#27} Center body name: Earth (399) {source: DE441} Center-site name: GEOCENTRIC ******************************************************************************* Start time : A.D. 2092-Aug-01 00:00:00.0000 UT Stop time : A.D. 2092-Aug-31 00:00:00.0000 UT Step-size : 4320 minutes ******************************************************************************* Target pole/equ : undefined Target radii : undefined Center geodetic : 0.0, 0.0, -6378.137 {E-lon(deg),Lat(deg),Alt(km)} Center cylindric: 0.0, 0.0, 0.0 {E-lon(deg),Dxy(km),Dz(km)} Center pole/equ : ITRF93 {East-longitude positive} Center radii : 6378.137, 6378.137, 6356.752 km {Equator_a, b, pole_c} Target primary : Sun Vis. interferer : MOON (R_eq= 1737.400) km {source: DE441} Rel. light bend : Sun {source: DE441} Rel. lght bnd GM: 1.3271E+11 km^3/s^2 Small-body perts: Yes {source: SB441-N16} Atmos refraction: NO (AIRLESS) RA format : HMS Time format : CAL Calendar mode : Mixed Julian/Gregorian EOP file : eop.251212.p260310 EOP coverage : DATA-BASED 1962-JAN-20 TO 2025-DEC-12. PREDICTS-> 2026-MAR-09 Units conversion: 1 au= 149597870.700 km, c= 299792.458 km/s, 1 day= 86400.0 s Table cut-offs 1: Elevation (-90.0deg=NO ),Airmass (>38.000=NO), Daylight (NO ) Table cut-offs 2: Solar elongation ( 0.0,180.0=NO ),Local Hour Angle( 0.0=NO ) Table cut-offs 3: RA/DEC angular rate ( 0.0=NO ) ******************************************************************************* Initial IAU76/J2000 heliocentric ecliptic osculating elements (au, days, deg.): EPOCH= 2458266.5 ! 2018-May-28.00 (TDB) Residual RMS= .10797 EC= .583546941497161 QR= 33.82850167639909 TP= 2485516.4218287012 OM= 211.6613728649621 W= 261.281014029398 IN= 7.58089378246776 Equivalent ICRF heliocentric cartesian coordinates (au, au/d): X= 6.245484982560214E+01 Y= 6.754420864466665E+00 Z= 6.594751782422095E+00 VX=-1.573345187859786E-03 VY= 1.753288199648697E-03 VZ= 4.210538395414142E-04 Asteroid physical parameters (km, seconds, rotational period in hours): GM= n.a. RAD= n.a. ROTPER= n.a. H= 3.81 G= .150 B-V= n.a. ALBEDO= n.a. STYP= n.a. ******************************************************************************* Date__(UT)__HR:MN r rdot ************************************************** $$SOE 2092-Aug-01 00:00 33.90227147844 -0.0054722 2092-Aug-04 00:00 33.90226271711 -0.0046409 2092-Aug-07 00:00 33.90225539493 -0.0038110 2092-Aug-10 00:00 33.90224950942 -0.0029826 2092-Aug-13 00:00 33.90224505813 -0.0021555 2092-Aug-16 00:00 33.90224203898 -0.0013295 2092-Aug-19 00:00 33.90224045045 -0.0005042 2092-Aug-22 00:00 33.90224029156 0.0003207 2092-Aug-25 00:00 33.90224156162 0.0011452 2092-Aug-28 00:00 33.90224426009 0.0019694 2092-Aug-31 00:00 33.90224838639 0.0027932 $$EOE ******************************************************************************* Column meaning: TIME Times PRIOR to 1962 are UT1, a mean-solar time closely related to the prior but now-deprecated GMT. Times AFTER 1962 are in UTC, the current civil or "wall-clock" time-scale. UTC is kept within 0.9 seconds of UT1 using integer leap-seconds for 1972 and later years. Conversion from the internal Barycentric Dynamical Time (TDB) of solar system dynamics to the non-uniform civil UT time-scale requested for output has not been determined for UTC times after the next July or January 1st. Therefore, the last known leap-second is used as a constant over future intervals. Time tags refer to the UT time-scale conversion from TDB on Earth regardless of observer location within the solar system, although clock rates may differ due to the local gravity field and no analog to "UT" may be defined for that location. Any 'b' symbol in the 1st-column denotes a B.C. date. First-column blank (" ") denotes an A.D. date. CALENDAR SYSTEM Mixed calendar mode was active such that calendar dates after AD 1582-Oct-15 (if any) are in the modern Gregorian system. Dates prior to 1582-Oct-5 (if any) are in the Julian calendar system, which is automatically extended for dates prior to its adoption on 45-Jan-1 BC. The Julian calendar is useful for matching historical dates. The Gregorian calendar more accurately corresponds to the Earth's orbital motion and seasons. A "Gregorian-only" calendar mode is available if such physical events are the primary interest. NOTE: "n.a." in output means quantity "not available" at the print-time. 'r rdot' = The Sun's apparent range ("r", light-time aberrated) and range-rate ("rdot") relative to the target center, as seen by the observer. A positive "rdot" means the target center was moving away from the Sun, negative means moving toward the Sun. Units: AU and KM/S Computations by ... Solar System Dynamics Group, Horizons On-Line Ephemeris System 4800 Oak Grove Drive, Jet Propulsion Laboratory Pasadena, CA 91109 USA General site: https://ssd.jpl.nasa.gov/ Mailing list: https://ssd.jpl.nasa.gov/email_list.html System news : https://ssd.jpl.nasa.gov/horizons/news.html User Guide : https://ssd.jpl.nasa.gov/horizons/manual.html Connect : browser https://ssd.jpl.nasa.gov/horizons/app.html#/x API https://ssd-api.jpl.nasa.gov/doc/horizons.html command-line telnet ssd.jpl.nasa.gov 6775 e-mail/batch https://ssd.jpl.nasa.gov/ftp/ssd/horizons_batch.txt scripts https://ssd.jpl.nasa.gov/ftp/ssd/SCRIPTS Author : Jon.D.Giorgini@jpl.nasa.gov *******************************************************************************